Location: Freistadt
(48.5112°N, 14.5013°E)
Time: 07:14:43
(UTC+02:00)

CUBEBUG 2 - Pass Details

Date: 06 April 2023
Orbit: 577 x 686 km, 97.8° (Epoch: 29 May)

Event Time Altitude Azimuth Distance (km) Brightness Sun altitude
Rises 02:16:32 0° 29° (NNE) 3,052 ? -33.0°
Reaches altitude 10° 02:19:50 10° 54° (NE) 2,115 ? -32.8°
Enters shadow 02:22:10 14° 85° (E) 1,819 ? -32.6°
